Theta_e
312 312 313 312 312 313 313 314 314 314 315 315 317 319 320 323 325 326 329 335 332 327 327 333 339 344 344 342 338 335 335 335 333 331 327 327 330 333 336 339 340 342 343 344 345 346 347 348 349 348 349 349 349 350 349 350 350 349 350 350 349 349 350 350 349 348 348 349 348 348 349 348 349 348 348 348 347 346 345 342 340 337 337 335 334 334 333
311 311 311 312 312 313 313 314 314 314 315 315 316 319 322 325 327 327 328 332 331 328 329 337 344 349 350 349 347 345 347 348 347 344 339 333 329 331 334 336 336 339 342 343 344 346 347 348 349 348 349 349 349 349 350 349 350 350 349 350 349 350 349 349 349 348 348 348 348 348 348 349 349 348 348 348 347 347 346 344 341 338 337 336 335 333 332
312 311 312 312 312 313 313 314 315 315 315 316 318 324 332 334 332 330 329 330 330 332 335 343 348 350 350 351 351 352 353 352 352 352 350 344 337 332 333 333 333 335 338 340 343 345 346 347 348 348 348 348 349 349 349 349 349 350 350 349 350 350 350 349 349 349 349 348 348 348 348 349 348 348 348 348 347 348 347 345 343 340 338 337 335 333 332
312 312 313 313 313 314 314 314 315 315 316 319 325 331 335 335 335 335 333 331 333 336 338 343 348 349 349 350 352 352 350 350 352 353 354 352 346 339 335 333 332 332 336 339 342 344 345 346 348 348 348 348 349 349 349 349 350 350 350 350 350 350 350 349 349 349 349 348 348 348 348 348 348 348 348 348 348 348 348 347 345 343 341 338 335 334 333
311 312 314 314 314 316 316 317 317 316 319 326 330 331 331 330 332 335 336 334 333 333 334 338 344 347 347 350 350 350 349 350 350 351 353 354 350 344 338 334 331 332 336 338 339 342 345 346 347 347 348 348 349 349 350 350 350 350 349 350 349 350 350 350 349 349 349 349 349 348 348 349 349 349 349 348 348 348 348 349 348 346 344 341 338 336 334
312 313 313 315 317 318 320 321 320 320 323 328 331 330 327 326 327 329 330 330 328 328 330 332 337 343 347 349 349 350 349 349 350 351 351 353 352 346 338 334 332 332 334 337 338 340 343 344 346 347 347 348 348 350 349 349 350 349 349 349 350 350 350 350 350 350 349 349 348 349 349 348 349 349 349 348 348 348 348 349 349 348 348 346 342 339 336
311 313 314 317 320 321 322 322 321 322 325 326 328 328 324 323 323 324 325 326 324 325 327 329 332 339 345 348 349 349 350 349 350 351 350 352 353 348 341 337 336 334 333 336 338 341 343 346 347 348 348 349 349 349 349 349 349 349 349 350 349 350 350 350 350 350 350 349 349 348 348 349 349 348 349 348 348 348 348 349 349 349 349 348 346 344 340
312 313 315 318 321 321 324 323 320 322 324 325 329 331 326 321 321 321 321 323 323 323 326 328 330 337 344 349 349 349 350 350 350 351 351 353 354 350 343 340 339 336 335 336 338 342 345 346 348 348 347 349 349 349 349 349 349 349 350 350 349 349 350 350 350 349 349 348 348 348 348 348 349 348 348 348 348 348 349 348 349 350 350 350 350 348 344
312 313 315 316 317 321 324 323 320 320 322 322 327 332 328 321 319 319 319 320 321 321 324 327 329 335 344 349 349 350 350 350 351 352 352 353 354 351 343 341 341 338 338 339 341 344 347 348 348 347 348 349 349 350 349 349 350 349 349 350 350 349 350 349 349 349 349 348 347 347 348 348 347 348 348 348 347 347 348 349 349 349 350 350 350 349 348
312 314 315 315 317 322 324 321 319 319 321 320 321 328 329 322 319 319 318 318 318 319 322 325 328 338 348 350 349 350 349 348 351 353 353 354 354 349 340 340 341 340 340 342 344 346 347 348 348 348 348 349 349 350 350 349 349 350 349 350 349 350 349 349 349 349 349 348 348 348 348 347 348 348 348 348 348 348 348 350 350 350 351 350 351 351 351
313 314 314 315 318 321 321 319 318 320 321 320 321 330 333 323 318 319 318 317 317 318 321 323 327 337 348 348 345 346 346 348 352 353 353 354 353 347 340 341 343 341 342 343 344 346 348 348 348 348 348 349 349 349 349 349 349 349 350 350 349 349 349 349 349 349 349 348 349 348 349 349 349 349 349 349 349 350 350 350 350 351 352 352 353 353 353
312 314 314 315 316 319 319 318 319 320 320 320 326 337 334 322 317 318 317 317 318 317 319 322 325 330 335 335 334 336 342 348 352 353 353 353 352 347 342 343 344 342 342 344 344 346 347 347 348 348 349 349 349 349 349 350 349 350 349 349 348 348 349 349 349 349 349 349 349 349 349 350 350 350 350 350 350 351 351 352 352 353 353 354 354 355 356
312 314 315 314 316 318 317 317 319 319 320 325 332 334 326 318 317 317 315 316 317 316 318 321 322 323 324 323 326 332 341 348 352 353 353 353 353 350 345 344 345 345 344 345 345 346 346 347 348 349 350 349 350 350 350 349 349 349 349 349 349 349 349 349 349 350 350 350 350 350 350 351 350 350 351 351 352 352 353 353 353 354 355 355 356 357 357
312 314 314 315 317 317 315 317 319 318 322 327 326 321 317 316 315 314 313 314 315 315 316 318 320 321 320 320 324 332 341 347 349 352 352 353 353 352 348 346 346 346 346 346 346 346 347 347 349 348 349 350 350 350 349 349 350 348 349 349 349 349 349 350 350 351 350 350 350 351 351 351 352 352 352 353 353 353 354 354 355 356 356 357 357 358 359
314 315 314 316 318 316 314 316 318 317 318 319 316 314 314 314 313 312 312 312 312 313 314 316 319 319 318 319 324 331 340 345 348 351 352 351 353 353 351 349 348 348 348 347 348 348 348 348 349 349 349 350 350 350 350 349 349 349 348 350 349 349 350 351 351 351 351 351 351 351 351 352 352 352 353 353 354 355 355 355 356 357 357 358 358 359 359
315 316 316 316 316 313 313 316 316 315 314 313 312 313 314 313 312 311 311 311 311 311 312 315 318 318 316 317 320 327 336 342 346 349 350 351 352 353 353 353 351 350 349 349 349 350 349 349 349 349 350 350 349 350 350 349 349 350 349 349 349 350 350 350 351 351 351 351 351 351 351 353 352 353 354 354 355 356 356 356 357 357 358 359 359 360 360
312 314 314 313 313 312 312 314 314 313 312 312 312 312 313 312 311 310 310 310 311 311 312 314 317 318 316 315 317 322 331 339 344 347 348 348 350 352 354 355 355 353 352 350 350 350 350 350 350 350 350 350 351 350 350 349 350 350 349 351 351 350 350 351 350 350 351 351 352 353 353 353 354 355 355 356 356 356 357 357 358 358 359 359 360 361 360
311 312 312 312 311 311 311 313 313 313 312 312 311 311 312 312 311 309 309 310 310 311 312 313 316 318 316 314 315 320 329 338 343 346 347 347 347 349 351 353 355 355 354 353 352 351 350 350 350 350 351 350 350 351 350 350 350 350 350 350 350 351 351 351 352 352 353 353 354 355 355 355 356 357 357 357 358 358 359 359 359 359 360 360 361 361 361
311 312 311 310 310 311 312 313 313 312 311 311 311 310 311 311 310 310 310 310 310 311 312 313 314 317 316 314 313 316 325 335 342 345 347 347 347 347 348 349 352 354 355 355 355 353 352 351 350 351 351 351 351 350 350 351 351 351 351 350 350 351 352 352 353 354 354 355 355 357 357 358 358 358 358 359 359 359 360 360 360 361 361 361 362 362 362
310 311 310 309 310 312 313 312 312 311 311 311 311 311 311 311 310 310 310 310 310 311 312 313 314 316 316 314 313 314 320 331 341 344 346 347 347 347 347 346 347 350 351 353 355 355 355 354 353 352 352 352 352 352 351 352 352 352 351 351 351 354 354 355 356 356 356 358 358 358 359 358 358 359 359 359 359 360 360 360 361 361 361 361 361 361 361
310 310 310 309 310 313 313 311 311 311 311 311 312 312 311 310 310 310 310 310 310 310 312 313 315 316 315 314 312 313 317 327 339 343 345 347 347 346 347 346 346 347 347 349 351 352 353 354 355 356 355 355 354 354 354 354 354 353 354 355 356 357 357 358 359 359 359 358 359 359 359 360 359 359 359 359 360 360 360 360 361 361 361 361 361 361 361
310 310 309 308 309 311 311 310 310 310 311 311 312 312 311 311 311 310 310 311 310 310 312 314 315 316 315 313 312 312 315 325 336 340 343 346 345 345 346 346 346 346 346 346 347 348 350 351 353 355 356 357 358 358 359 358 359 359 359 360 360 360 361 361 360 360 359 358 357 358 359 359 359 358 358 359 359 359 360 360 360 360 361 361 361 362 361
309 309 308 308 309 309 309 309 310 310 311 311 312 312 312 312 311 310 310 311 310 310 312 314 315 316 315 313 312 312 314 324 333 335 338 343 344 343 344 345 345 347 346 345 346 346 348 351 351 351 352 354 355 357 358 360 361 361 361 361 360 360 361 360 360 359 358 356 355 355 356 357 358 360 359 358 358 359 359 359 360 360 360 361 361 361 361
308 308 307 308 308 308 308 309 309 309 311 312 313 313 313 312 312 311 311 311 310 310 311 313 315 315 314 313 312 312 314 322 329 331 335 340 342 343 343 343 344 345 346 345 346 345 346 348 349 350 350 350 351 353 354 355 356 358 359 359 359 358 357 357 356 355 355 354 353 353 354 356 357 358 359 359 359 359 358 359 359 360 360 361 361 361 362
307 307 307 307 307 307 308 307 308 309 311 312 312 314 314 313 313 312 311 311 310 309 310 312 314 314 313 313 313 312 313 318 324 328 331 336 340 342 343 343 342 343 344 345 345 345 345 346 347 348 348 348 349 351 351 352 353 353 354 355 356 355 355 354 354 355 355 355 356 355 356 357 357 358 359 358 358 358 358 358 359 360 360 361 362 362 363
306 306 307 307 307 307 307 307 308 309 310 311 312 313 314 314 314 313 312 311 311 310 310 312 314 313 312 312 313 313 313 316 320 324 328 333 337 338 340 342 342 342 343 343 343 344 345 345 345 346 346 345 346 348 349 352 354 355 355 355 354 354 353 354 355 357 358 358 359 358 357 358 358 358 358 359 358 359 358 359 359 360 361 362 363 364 364
306 306 306 306 306 306 306 307 307 308 309 310 311 313 314 314 314 313 313 312 311 310 310 312 313 313 312 312 314 314 314 315 317 320 324 329 333 335 338 340 340 341 342 342 342 343 344 344 344 344 344 344 344 345 345 348 352 355 357 357 358 358 357 357 357 358 359 359 359 359 359 359 359 359 360 360 360 360 360 360 360 361 362 363 364 365 365
306 306 306 306 306 305 305 306 307 307 308 309 310 312 314 314 314 314 314 313 313 311 310 311 312 312 313 312 313 315 315 314 315 317 319 323 328 332 335 337 339 340 341 341 341 341 343 344 343 343 343 343 343 342 341 343 347 352 356 358 360 360 361 361 361 360 360 360 360 361 361 361 361 361 362 361 361 361 360 360 360 360 361 362 363 362 363
306 306 305 305 305 305 305 306 306 306 307 308 310 311 312 313 314 314 314 314 314 313 312 311 312 313 313 312 312 313 314 314 316 317 316 317 321 326 331 335 337 339 340 340 341 340 341 342 343 343 343 343 342 341 341 340 343 347 352 356 359 361 361 363 363 363 363 362 362 362 363 363 362 363 362 362 362 361 360 360 360 359 360 360 360 359 357
305 305 305 305 304 305 305 305 305 306 306 307 308 309 310 312 313 314 314 314 314 314 312 312 312 313 313 313 312 313 312 313 316 319 318 317 317 320 326 330 334 336 337 337 338 339 340 340 341 341 342 342 342 341 341 341 343 346 349 352 356 359 360 361 361 362 363 364 364 363 364 363 363 362 363 362 361 360 360 359 359 358 359 358 356 355 351
305 305 305 305 304 304 304 304 305 305 305 306 306 308 309 311 312 313 314 315 315 314 314 312 312 313 313 312 312 313 313 313 315 318 321 321 319 318 320 323 327 332 336 336 337 339 339 338 339 340 340 341 341 340 340 341 343 346 349 350 352 354 357 359 360 360 361 363 364 364 365 364 363 362 362 362 360 359 358 357 356 356 355 352 350 348 345
305 305 305 305 305 304 304 304 304 305 305 305 306 307 308 309 309 311 314 316 315 315 315 314 313 313 313 313 312 313 314 314 314 315 318 321 323 322 320 319 319 325 332 335 336 338 338 338 338 338 339 340 341 341 341 341 341 344 347 350 352 353 355 357 359 359 360 362 363 364 363 362 361 361 361 360 359 358 356 356 355 353 350 347 345 342 338
305 305 305 305 305 304 304 304 304 304 305 305 305 306 306 307 309 311 314 315 316 316 316 315 313 313 313 313 313 313 313 314 315 315 316 318 320 321 321 321 320 319 324 331 335 338 339 338 338 337 338 339 341 341 341 340 340 341 343 347 351 353 353 354 356 357 358 360 361 361 361 360 359 359 359 357 355 354 353 352 350 347 343 341 339 335 332
304 304 304 305 305 304 304 304 303 304 304 304 305 305 306 307 309 311 313 314 316 316 316 316 315 314 313 313 313 313 313 313 315 316 317 320 322 321 322 324 321 317 319 327 332 335 336 336 336 337 337 338 340 341 341 340 340 340 340 342 347 350 351 351 353 354 355 357 357 357 357 356 356 356 354 351 349 349 348 346 343 340 338 336 334 332 331
303 303 304 304 304 304 304 304 303 303 304 304 304 305 305 306 309 311 313 314 316 316 316 316 315 314 314 313 313 313 313 313 315 317 319 324 327 326 326 326 324 321 322 326 327 329 333 335 335 336 337 337 339 340 340 340 340 340 340 341 343 346 348 349 349 349 349 349 351 352 351 351 350 349 347 345 343 343 342 340 338 336 335 333 333 332 333
303 303 303 304 304 304 304 304 303 303 303 303 304 304 305 306 308 310 312 314 315 316 317 316 315 314 314 313 313 312 313 314 316 318 321 325 327 327 327 328 328 328 327 325 323 325 331 334 335 335 336 337 338 339 340 340 339 340 340 340 341 344 345 346 347 346 344 344 346 347 347 347 345 344 342 341 340 338 337 335 334 334 333 333 333 333 334
303 303 303 303 304 304 304 304 303 303 303 303 304 304 304 305 306 309 311 314 316 317 317 315 314 314 313 313 312 313 314 315 316 318 322 325 326 326 326 327 328 329 329 327 326 327 330 333 334 336 336 337 338 339 339 340 339 339 340 340 340 341 343 344 345 345 344 342 342 343 343 343 342 340 338 337 336 335 334 333 333 333 333 333 334 334 333
304 304 303 302 303 304 304 303 303 303 303 303 303 303 304 304 305 307 310 313 316 317 317 317 316 317 317 316 314 314 315 316 317 319 322 325 325 324 325 326 326 327 329 329 330 331 331 333 334 335 335 336 337 338 339 339 339 339 339 340 339 340 340 342 343 344 343 342 341 340 340 340 339 338 337 335 334 333 333 333 334 334 333 333 333 333 333
305 305 303 301 301 302 303 303 303 303 303 303 303 303 303 304 305 306 308 311 314 316 318 318 318 318 318 318 317 317 318 318 318 319 322 323 323 323 324 324 325 326 327 328 328 330 330 331 332 333 334 335 336 337 339 339 339 338 339 339 339 339 339 340 341 342 342 341 340 339 338 338 338 337 336 335 334 334 334 334 334 333 333 333 332 332 332
305 305 304 302 301 301 302 303 303 302 302 303 303 303 303 303 304 304 306 308 311 313 315 317 317 317 317 317 317 317 319 319 320 320 322 322 321 321 322 323 323 324 325 326 327 328 329 330 331 332 333 334 335 337 339 339 339 339 338 338 339 339 339 339 341 341 341 340 339 337 337 336 336 335 335 334 334 334 334 334 333 333 332 332 331 331 330
304 305 305 303 301 300 301 302 302 302 302 302 302 303 303 303 303 304 304 306 307 309 311 313 315 315 315 315 315 316 317 317 318 319 321 320 320 321 322 322 322 322 324 325 326 327 328 328 329 331 332 333 334 335 337 338 338 338 337 337 338 339 339 339 340 340 340 339 339 337 336 336 335 335 334 334 334 334 333 332 332 331 331 330 329 328 327
304 305 305 304 302 301 301 302 302 302 301 302 302 302 303 303 303 303 303 304 306 307 308 309 311 312 313 313 314 314 315 315 315 317 318 318 318 319 319 319 319 320 322 323 325 326 326 326 328 329 330 331 332 333 334 335 336 337 337 337 337 338 339 339 339 339 339 339 338 338 337 336 335 335 334 334 334 333 332 331 330 330 329 327 325 324 323
303 303 304 304 303 301 301 302 302 302 301 301 301 302 302 302 303 303 303 303 304 306 306 307 308 309 310 311 312 312 312 312 312 313 314 314 315 316 316 315 316 318 320 321 322 323 323 323 325 326 328 329 329 330 331 333 333 334 334 335 336 336 337 338 338 338 338 337 336 335 335 334 333 333 333 332 331 330 329 328 327 326 324 323 322 321 321
301 302 303 304 304 302 301 301 302 302 302 301 301 302 302 302 302 303 303 303 303 304 304 305 305 306 307 308 309 309 309 310 311 312 312 312 312 312 312 313 315 317 318 319 320 320 321 322 323 324 325 325 326 326 327 329 330 330 332 333 335 335 336 336 336 336 336 335 334 333 333 332 331 330 329 328 327 325 324 323 322 321 321 320 320 320 320
301 301 302 303 304 302 302 301 302 302 302 302 301 301 302 302 301 302 302 303 303 303 304 304 304 304 304 305 305 305 306 308 309 310 310 310 310 309 310 311 313 314 316 317 318 319 319 320 320 321 322 322 322 322 323 325 325 325 326 328 330 332 332 333 333 332 331 331 330 330 329 328 327 326 324 323 321 320 319 319 319 318 318 318 318 317 317
301 300 301 302 303 302 301 301 301 301 302 302 301 301 301 302 302 301 301 301 302 303 303 303 304 304 303 303 304 304 305 306 306 307 307 307 307 307 309 310 311 312 313 315 316 317 317 317 317 318 319 319 319 319 320 321 321 321 321 322 324 325 326 327 327 326 325 325 324 323 322 322 321 320 319 318 318 317 317 316 316 315 315 315 315 315 314
301 300 300 302 303 302 301 301 301 301 301 302 301 301 301 301 301 302 301 300 300 301 302 303 303 303 303 303 303 304 304 304 305 305 306 306 307 307 307 309 310 311 312 312 312 312 313 314 314 314 315 316 317 317 317 317 318 318 319 318 318 318 318 319 320 319 318 318 318 317 317 316 316 315 315 314 314 314 314 313 313 312 311 310 310 309 308
300 300 300 301 302 302 302 301 300 300 301 301 301 301 301 301 301 301 301 300 300 300 301 301 302 302 302 302 303 303 303 303 304 304 304 305 306 306 306 307 308 309 310 310 309 309 310 311 311 312 312 313 314 314 314 314 315 315 316 316 315 314 314 314 314 314 313 313 312 312 312 311 311 310 310 309 308 307 307 307 306 305 304 303 302 301 301
300 300 300 299 300 301 301 302 301 301 301 301 301 301 301 301 300 301 301 301 301 300 300 300 301 301 301 301 301 302 302 302 302 302 303 304 305 305 305 306 307 307 308 309 309 308 309 309 310 310 310 310 310 311 311 312 312 311 311 311 311 310 308 306 306 306 306 306 306 306 305 305 304 303 302 301 300 299 299 299 299 298 298 297 297 297 296
300 300 300 299 299 300 301 302 302 301 300 301 301 301 301 301 301 301 300 301 301 300 300 300 300 300 300 300 300 301 301 301 302 302 303 303 303 304 304 304 305 306 306 307 307 307 307 308 308 309 309 308 308 308 308 308 308 307 307 306 306 305 304 303 302 302 302 302 301 301 300 299 298 298 297 297 297 297 296 296 296 295 295 295 295 295 295
300 300 300 299 299 299 300 301 301 300 299 300 301 301 301 301 301 301 300 300 300 301 300 300 300 300 300 300 300 300 300 300 301 301 302 302 302 303 303 303 304 304 304 305 305 306 306 306 306 306 307 306 306 305 305 305 304 304 304 303 303 302 302 302 302 301 300 300 299 298 297 297 297 298 298 298 298 297 297 296 296 295 295 295 295 295 295
300 299 299 299 299 299 299 299 300 300 299 299 300 300 300 300 301 301 301 300 300 301 301 300 300 300 300 300 300 300 300 300 300 300 300 301 301 302 302 303 303 303 304 304 304 304 304 304 304 304 304 304 304 303 303 303 303 302 302 302 301 301 301 301 301 300 300 300 299 299 298 299 299 299 299 299 298 298 297 297 296 295 295 295 295 295 295
Wind_Speed
16 16 16 12 9 10 10 11 13 12 8 7 7 9 9 7 5 6 8 10 8 4 6 10 12 11 10 11 12 11 10 10 11 14 17 17 16 19 25 31 34 37 40 42 44 47 49 51 53 53 53 52 52 53 53 52 51 52 52 51 49 47 47 47 46 44 43 41 38 37 36 35 34 33 32 31 30 29 29 29 29 30 30 31 31 31 31
16 17 16 14 12 12 12 13 14 14 11 10 10 10 11 11 11 10 12 16 12 7 7 11 13 15 14 14 15 14 11 11 11 13 16 19 21 19 21 28 34 38 41 44 46 48 49 51 53 54 54 54 54 54 52 51 51 51 51 50 48 48 47 47 45 44 42 41 38 38 37 36 35 34 33 32 31 30 29 29 29 29 29 29 29 30 30
13 15 15 15 14 14 14 14 13 13 12 11 11 10 7 8 10 11 13 15 12 6 6 11 14 14 13 11 11 11 11 12 13 14 15 18 24 27 26 28 33 37 41 44 46 47 49 51 53 55 55 55 55 53 52 52 52 51 51 50 48 48 47 46 45 43 42 41 39 38 38 37 36 35 34 33 32 32 31 30 30 30 30 30 30 30 31
10 10 10 12 12 12 14 15 13 13 12 9 7 3 3 3 3 6 8 8 5 5 9 12 11 10 9 9 10 11 11 13 14 15 16 18 22 28 31 31 33 37 42 45 47 48 49 51 52 54 55 55 54 53 52 53 52 51 50 49 48 48 47 46 44 42 41 41 41 40 39 38 37 36 35 34 34 33 32 32 31 31 31 31 31 31 31
9 8 7 7 8 9 11 11 12 14 12 7 4 2 5 5 3 4 5 3 5 9 12 11 9 9 8 8 10 11 12 14 15 16 18 20 22 26 31 32 32 36 41 45 47 48 50 51 52 54 54 54 55 54 54 53 52 51 50 48 47 47 47 46 43 41 41 41 40 40 39 38 37 36 36 36 35 35 34 33 33 33 33 32 32 32 33
8 7 7 7 9 10 5 0 3 9 10 6 6 6 7 7 4 3 4 6 11 11 11 11 11 12 11 10 11 11 12 14 16 18 19 21 22 24 27 30 30 33 40 44 46 48 51 52 52 53 52 52 53 52 52 52 51 50 49 48 47 47 47 45 43 41 41 40 40 39 38 37 37 36 36 36 36 35 34 34 34 34 33 33 33 33 33
7 7 7 7 9 7 2 6 6 1 3 2 7 10 11 11 9 9 9 10 13 13 14 15 16 17 16 14 11 11 13 14 16 19 21 21 22 21 22 25 27 32 38 43 46 49 50 49 49 51 51 51 50 50 51 51 50 49 48 47 46 46 46 44 42 41 40 39 38 38 37 37 36 37 37 37 36 35 35 35 35 33 33 33 33 33 33
6 5 5 6 3 1 4 4 7 4 1 2 3 9 11 12 11 11 11 12 13 15 18 20 20 20 17 13 10 11 15 14 15 19 21 21 22 21 20 22 26 31 36 42 46 48 48 46 47 50 51 50 50 50 50 49 48 48 47 45 45 45 44 43 41 40 39 37 37 36 35 36 36 36 37 36 35 35 35 35 35 34 33 33 33 33 32
6 6 6 6 5 3 5 4 5 3 2 5 3 3 6 10 11 11 12 13 15 18 21 24 25 21 12 9 8 11 17 17 16 18 20 20 21 20 18 21 25 29 34 38 42 43 43 44 47 49 49 50 49 47 46 46 46 47 46 44 44 43 43 42 41 39 38 36 35 34 34 35 35 35 35 35 34 34 35 35 35 35 34 33 33 32 32
6 6 6 6 6 5 4 2 5 4 4 6 6 3 3 8 13 15 13 13 16 18 20 27 29 20 8 5 5 14 22 22 18 17 18 17 17 17 16 18 22 27 32 35 38 39 40 42 44 46 48 49 48 46 46 46 45 45 45 44 43 42 42 41 40 39 38 36 34 34 34 34 34 34 35 34 34 34 35 35 35 34 33 32 32 33 33
5 6 6 5 5 3 2 5 7 6 6 8 7 5 3 6 13 16 14 14 16 17 19 25 23 12 2 1 9 20 27 23 15 14 16 15 13 11 11 14 20 25 29 32 34 35 37 40 42 45 47 48 48 47 46 45 44 44 44 43 41 40 39 39 39 38 36 35 34 33 34 33 33 33 32 32 32 33 33 33 33 33 32 32 33 32 32
5 7 7 5 4 1 6 10 11 11 10 7 6 7 2 6 12 15 15 15 17 20 23 21 13 7 4 9 19 29 30 19 10 11 14 13 10 7 8 14 19 23 26 30 33 34 36 39 41 44 46 46 46 46 45 44 44 43 41 39 37 36 36 36 35 34 33 33 33 33 32 31 30 29 29 28 30 31 31 31 31 31 32 32 32 31 30
7 9 7 5 3 2 9 14 15 14 9 4 5 4 2 8 11 14 17 17 18 21 23 18 12 12 17 22 28 30 25 15 9 8 9 10 8 4 7 14 18 21 25 28 31 33 34 35 39 43 45 45 44 44 44 44 42 40 37 35 34 34 34 33 33 32 32 31 31 30 29 27 27 27 27 28 29 30 30 30 30 31 31 31 31 30 30
6 6 6 6 3 4 13 18 14 11 4 3 1 3 7 9 12 16 19 20 21 23 24 22 20 25 29 30 30 28 22 16 12 10 8 9 8 3 5 13 18 22 25 26 28 30 31 33 37 40 42 42 43 43 43 41 39 36 34 33 32 31 31 32 32 31 30 29 28 27 26 26 27 28 27 28 29 29 29 30 30 30 30 30 30 29 29
4 6 6 5 3 6 17 17 9 7 4 1 3 6 7 9 13 18 22 24 24 24 28 30 29 29 32 34 33 30 26 22 17 14 11 11 10 8 4 10 17 22 26 27 29 30 31 33 36 38 39 40 41 41 40 37 34 33 30 29 29 29 29 30 30 28 27 26 25 25 25 26 27 27 27 28 28 28 28 29 30 30 29 29 30 29 29
2 5 3 1 1 6 15 11 4 5 5 4 5 8 8 10 14 17 20 25 26 25 30 34 32 30 33 37 36 33 29 26 22 19 17 16 14 12 9 8 12 18 24 28 30 32 33 34 35 36 37 38 38 38 36 33 30 29 27 26 27 27 27 27 26 25 25 24 24 25 25 25 26 26 27 28 28 28 29 29 30 30 30 30 30 30 30
2 3 1 3 3 8 12 7 3 4 2 3 7 10 9 11 15 17 19 24 27 27 29 32 31 30 34 38 37 34 31 29 26 23 21 20 20 18 15 11 11 12 17 23 27 31 33 34 34 35 35 35 36 36 33 30 28 27 26 26 26 26 26 26 25 25 24 24 24 24 24 25 26 26 26 28 28 29 29 29 30 31 31 31 30 29 28
4 3 3 8 11 15 14 4 3 2 2 6 11 13 12 12 15 18 19 22 26 27 29 31 30 29 33 37 37 35 32 30 28 25 22 22 22 22 20 18 15 13 13 17 22 27 30 32 33 35 35 34 34 34 32 29 28 27 27 26 26 26 27 26 25 25 24 24 24 23 24 25 25 24 25 27 28 28 29 29 30 30 30 30 29 27 27
4 1 5 12 18 18 10 1 3 4 10 14 16 17 17 17 17 18 19 20 23 26 27 29 30 29 30 35 37 35 33 30 28 27 24 22 23 23 21 19 19 19 18 17 17 21 25 27 30 33 34 33 32 31 31 30 29 28 28 27 26 26 26 25 25 25 26 26 25 25 25 26 25 25 26 27 29 30 30 30 31 30 29 28 27 27 26
5 2 7 18 20 9 4 4 6 14 19 21 20 19 21 22 21 19 18 18 22 25 26 27 29 29 29 33 34 33 34 32 28 27 25 22 21 22 22 20 19 20 21 20 19 19 20 20 23 27 29 30 30 30 30 29 28 28 29 28 27 26 26 25 25 25 25 25 26 27 27 28 28 28 28 29 30 30 29 29 30 29 27 26 26 26 25
4 2 8 19 16 3 2 11 18 20 22 24 23 21 22 23 22 20 18 18 20 23 24 25 27 28 28 31 32 30 32 32 28 26 25 22 21 22 22 21 20 20 20 19 19 20 19 18 20 21 23 25 26 26 27 26 26 27 27 26 26 25 25 25 25 24 23 24 25 27 29 30 30 30 30 30 29 29 28 28 28 28 27 26 25 24 22
5 6 11 15 10 5 11 22 24 23 23 23 23 23 23 22 22 21 19 19 20 21 20 21 24 27 28 30 30 28 30 32 29 25 24 23 21 21 20 20 20 21 20 19 18 18 17 17 18 19 20 21 22 23 24 24 24 25 25 25 25 25 25 26 26 25 25 25 26 28 29 31 31 31 30 30 29 29 28 27 26 26 26 25 23 22 21
7 12 15 15 11 10 16 23 25 25 25 22 21 23 23 22 23 21 19 19 22 22 20 18 20 24 26 27 29 28 29 30 29 27 25 22 20 19 20 19 20 20 19 18 18 17 16 15 15 16 16 17 18 19 21 22 23 23 25 26 27 27 28 28 27 27 28 29 29 29 30 30 32 32 31 30 29 28 27 26 25 25 24 23 21 19 19
10 16 20 19 16 15 19 23 24 22 21 20 20 21 21 21 21 20 18 17 19 21 22 19 18 20 23 25 28 28 27 27 28 27 25 22 19 19 19 19 19 19 19 18 17 16 14 13 13 13 14 14 14 15 15 17 20 21 23 25 26 27 28 28 28 28 29 30 30 31 31 31 31 31 31 30 29 28 27 26 25 24 23 21 19 17 17
15 18 21 19 17 17 20 23 23 19 18 19 19 19 19 18 17 15 15 15 16 19 21 20 17 18 21 23 26 26 24 24 25 26 25 24 21 19 18 18 19 19 18 16 15 14 13 12 12 11 11 12 12 12 13 13 14 16 19 21 22 24 25 25 25 26 27 27 28 29 30 30 28 28 28 27 27 26 26 25 23 22 21 18 17 16 16
22 22 22 18 16 18 22 24 23 22 21 20 18 17 17 17 14 12 11 13 15 17 18 17 16 17 18 20 23 23 22 21 22 22 23 25 24 21 18 17 17 17 16 15 14 12 11 11 11 11 11 11 10 10 12 12 11 12 15 18 19 21 22 21 21 22 22 22 23 24 24 24 24 24 23 22 21 22 24 24 22 21 18 17 16 16 16
24 24 23 19 18 24 27 25 23 23 23 21 18 15 15 16 15 13 11 12 15 17 16 15 15 14 15 17 18 19 19 19 18 19 21 23 24 22 19 17 15 15 14 14 14 12 11 11 11 10 10 11 10 9 9 10 10 10 12 15 17 18 19 19 18 18 19 19 19 19 20 20 21 21 20 19 19 20 22 23 23 21 18 16 15 14 14
23 24 23 19 18 24 27 24 22 22 22 21 19 14 13 14 15 14 12 13 14 16 16 15 14 12 12 14 15 17 17 17 16 17 19 20 21 21 19 16 15 14 13 13 13 14 13 11 10 10 10 11 11 11 9 7 8 9 10 12 15 17 18 18 18 18 19 19 19 19 20 20 20 20 19 19 20 20 21 21 21 20 19 17 15 13 12
24 24 23 20 20 23 24 24 24 24 24 23 21 17 14 13 13 12 12 13 13 14 15 15 11 9 8 10 12 14 16 15 14 14 16 17 18 19 18 17 15 14 14 13 13 14 14 13 11 10 10 11 11 12 11 8 6 8 9 10 13 15 17 17 17 17 18 19 19 19 20 20 20 20 20 20 20 21 21 20 19 19 18 17 16 14 12
23 23 22 22 22 23 24 25 25 25 25 25 23 20 18 16 14 12 11 11 12 13 15 14 12 9 6 5 6 9 12 13 13 12 13 14 14 16 17 17 16 14 13 12 13 14 14 13 12 11 10 10 11 12 13 11 7 7 8 9 10 12 15 16 16 16 17 19 19 18 18 19 18 19 21 22 22 21 21 20 19 18 17 16 17 17 17
22 22 22 22 22 22 23 24 24 25 26 26 25 24 22 21 18 15 13 12 11 11 12 14 14 12 8 4 3 5 8 10 10 10 11 10 10 12 13 15 16 15 13 12 12 13 14 13 13 12 11 11 11 12 13 13 10 6 6 8 9 10 11 13 15 16 17 18 18 18 18 19 20 20 21 22 23 23 23 24 23 21 20 21 21 21 20
20 20 22 23 23 23 23 23 24 26 27 27 27 25 23 22 20 17 14 13 12 11 10 12 14 15 12 8 5 5 7 8 9 10 10 8 7 9 10 10 11 12 12 10 10 10 12 13 13 13 12 11 11 11 12 13 11 8 5 6 7 8 9 10 13 16 17 18 18 18 19 20 22 22 22 22 23 23 25 27 27 26 25 25 24 21 20
20 20 23 25 25 25 25 24 25 26 26 26 25 24 23 22 20 16 13 13 12 11 9 9 12 15 16 14 12 10 11 11 10 10 10 9 7 7 8 9 8 7 7 7 8 8 10 11 12 12 12 11 10 10 11 12 11 9 6 4 4 7 9 10 12 15 17 18 19 20 20 20 21 22 23 25 26 26 26 27 27 28 27 26 23 22 20
21 21 21 22 23 24 24 23 23 24 25 26 25 24 24 24 21 17 14 13 12 12 11 8 9 13 16 16 15 13 12 12 12 10 10 10 8 8 8 9 8 6 4 4 6 7 7 8 9 10 11 11 10 9 10 11 10 8 6 4 2 6 10 12 13 15 17 20 21 22 22 22 23 24 25 28 29 29 28 27 26 26 27 26 25 23 21
22 21 20 19 20 20 20 20 20 21 23 25 25 25 25 24 22 18 15 13 13 15 14 9 7 10 14 16 15 13 11 11 10 10 10 10 9 8 7 7 7 6 4 4 6 6 6 6 7 8 9 10 9 7 7 8 9 7 5 3 1 5 9 12 15 17 19 21 22 23 24 24 25 26 26 27 28 27 27 26 26 25 25 26 26 24 21
21 22 21 19 20 20 20 19 19 20 20 21 23 24 25 24 22 20 17 14 13 14 12 8 5 7 12 15 14 12 10 8 7 8 8 8 8 8 8 7 7 5 4 5 6 6 6 7 7 6 7 8 7 6 5 5 6 5 3 1 1 4 8 12 16 19 22 23 24 25 25 26 27 28 27 26 26 26 27 27 27 26 25 25 25 23 21
20 22 22 21 20 20 20 20 19 19 19 20 20 23 25 26 24 22 18 15 12 10 7 3 1 4 7 9 10 10 8 7 7 6 6 6 7 8 9 9 8 7 6 6 7 7 7 7 7 7 7 7 6 5 4 4 4 4 2 1 2 4 7 10 14 17 21 24 25 25 26 27 28 28 28 27 27 27 27 27 26 25 24 24 23 21 19
17 20 23 23 21 19 19 20 19 19 19 20 20 21 24 26 26 24 20 17 15 12 10 9 8 7 5 4 3 5 5 7 8 7 6 7 8 9 9 9 10 9 8 8 7 8 8 9 9 9 8 8 6 5 4 4 5 6 6 6 6 6 7 9 11 14 18 21 23 23 24 25 27 28 28 29 28 28 27 25 24 23 23 22 21 19 17
16 17 21 24 24 21 19 19 20 21 20 21 21 21 23 26 28 27 23 20 18 16 13 11 11 11 9 7 5 3 4 6 7 7 7 8 9 10 10 10 10 12 12 12 11 10 9 9 10 10 9 7 7 8 8 7 8 10 11 11 11 10 9 10 11 12 15 18 21 23 24 25 26 27 28 28 28 27 26 25 23 22 22 21 19 18 16
15 15 18 22 24 24 21 19 20 22 21 21 21 22 23 25 28 30 28 24 20 18 14 11 10 11 12 11 9 7 5 4 4 4 5 7 8 9 10 10 11 12 12 13 13 11 9 8 9 10 9 8 8 10 11 12 13 14 15 15 14 13 12 13 13 15 16 18 21 23 25 25 26 26 26 26 26 25 24 23 22 21 20 19 18 16 15
14 14 15 18 22 24 23 20 19 20 22 22 22 23 24 25 26 29 30 28 24 21 18 15 13 13 13 13 12 11 9 6 3 1 1 4 6 7 8 9 11 12 12 12 12 11 8 7 9 10 10 9 10 10 12 14 17 18 17 18 17 16 15 15 16 18 20 21 23 24 25 26 26 26 26 25 24 23 22 20 19 18 17 17 16 15 14
13 13 13 15 18 21 22 20 18 19 21 22 22 21 23 25 26 27 29 30 27 25 23 22 19 17 16 15 15 15 13 12 9 6 3 2 2 3 4 7 10 11 11 10 9 9 8 8 9 10 11 10 11 12 13 15 18 19 20 20 19 18 18 18 19 19 21 23 24 24 25 26 26 26 25 24 23 22 21 19 18 17 16 16 16 16 16
12 11 11 11 14 17 20 19 18 19 20 22 21 20 20 22 24 25 27 30 30 28 27 26 24 22 20 19 18 18 18 16 14 12 11 9 8 6 6 6 8 9 10 9 8 8 7 7 7 9 10 11 12 13 14 17 19 21 22 22 21 21 21 21 21 22 22 23 23 23 24 24 24 24 24 23 23 21 20 19 18 17 16 16 17 17 17
11 11 10 10 11 14 17 17 18 18 19 20 20 19 19 21 23 24 24 26 28 29 29 29 28 27 25 23 22 21 20 18 15 14 13 12 12 12 11 9 7 6 7 8 8 7 6 5 6 7 8 9 10 12 14 18 20 22 23 22 22 23 23 23 23 24 24 24 24 24 24 24 24 24 23 22 22 21 20 19 18 18 18 18 17 17 16
12 12 11 9 9 11 14 15 15 17 18 18 18 19 19 20 22 23 22 22 24 25 26 28 28 29 29 27 25 24 23 21 18 15 15 17 19 18 14 11 9 7 5 5 7 6 5 5 6 6 6 5 6 9 12 16 18 20 21 23 24 25 26 26 26 26 26 26 25 25 24 24 24 23 23 22 22 21 21 20 19 18 17 16 15 14 13
12 13 13 11 9 9 11 13 14 15 16 17 19 20 20 19 19 21 23 23 21 20 20 22 24 25 26 27 27 26 26 26 24 22 20 21 21 18 14 12 11 9 6 5 5 4 4 4 4 3 4 5 7 9 12 15 17 19 22 25 26 27 27 28 28 28 28 28 28 27 27 26 25 24 23 23 22 21 20 19 18 17 15 13 12 11 10
13 13 14 13 10 8 9 11 13 14 15 16 18 20 20 19 18 18 20 23 23 20 17 18 19 20 21 22 24 25 25 26 27 26 24 22 21 20 18 17 14 11 10 11 12 10 6 3 3 4 5 8 11 13 16 19 21 22 24 25 27 28 29 29 28 28 28 28 28 27 27 26 25 24 23 22 21 20 19 18 17 16 15 14 13 13 12
12 12 13 13 12 9 8 9 11 12 13 14 15 16 18 19 19 18 19 21 24 23 21 20 19 19 19 19 20 21 23 24 26 26 25 23 24 25 24 22 19 17 16 17 18 16 13 10 10 10 11 11 14 16 19 21 22 23 23 24 26 28 29 29 28 28 28 28 27 27 26 26 25 24 23 22 21 21 19 18 18 17 16 15 14 13 13
10 11 12 14 13 10 8 7 9 10 11 12 12 14 15 16 18 19 19 19 21 22 23 23 22 22 21 19 18 18 19 21 22 23 23 23 24 25 25 25 24 23 23 23 23 21 19 17 17 18 18 19 20 22 23 24 25 26 26 27 28 29 30 31 30 29 29 28 28 27 27 26 25 24 23 22 21 20 19 18 17 16 15 14 13 13 12
9 10 12 14 14 12 10 8 8 10 11 10 10 11 13 14 15 17 19 19 19 20 21 21 22 23 24 23 20 18 17 17 17 17 18 20 23 24 25 26 27 27 27 28 27 26 24 23 23 23 23 24 25 26 26 27 27 28 28 28 28 28 28 28 29 28 28 27 26 26 26 26 25 24 24 23 22 20 19 18 17 15 14 14 13 13 12
8 10 11 12 13 13 12 10 9 9 10 11 11 11 12 13 13 14 16 18 18 18 19 20 20 22 23 23 22 21 21 20 19 17 16 17 19 21 22 23 24 26 27 28 28 27 27 26 25 24 24 25 25 25 26 26 27 28 27 27 28 28 27 26 26 27 27 27 26 26 26 25 24 23 23 22 20 19 18 17 16 15 14 14 13 13 12
7 8 9 10 11 12 12 12 11 10 10 11 12 12 12 12 11 11 12 14 15 16 16 17 17 18 19 20 21 21 22 23 23 22 21 19 19 20 20 21 22 23 25 26 27 27 27 26 26 26 25 25 24 24 24 25 25 26 25 25 25 26 26 26 26 25 25 25 24 24 23 22 20 19 18 18 17 16 16 15 14 14 13 12 12 11 11
Wind_Direction
271 276 281 281 278 271 270 273 275 280 278 254 234 240 252 261 249 259 310 313 289 300 335 328 331 329 317 312 314 319 320 310 302 292 283 273 253 230 221 218 216 214 214 213 211 211 210 208 208 210 211 211 211 213 214 213 214 217 219 220 221 220 220 221 222 223 224 225 226 227 228 228 228 229 230 230 231 232 232 232 232 233 235 237 238 239 240
273 271 272 272 267 265 266 264 265 271 272 260 252 253 255 250 238 242 269 278 279 288 312 321 321 316 317 316 317 325 329 325 319 305 288 277 267 249 228 222 222 220 219 217 214 211 209 208 208 210 210 211 212 214 214 214 215 217 220 221 220 220 220 221 222 222 223 224 225 226 227 228 229 229 230 231 231 232 232 232 232 233 234 236 238 239 239
276 273 270 263 256 255 260 261 260 261 262 259 252 256 271 267 247 239 249 263 275 293 326 325 312 308 314 315 320 334 336 332 326 311 295 282 271 262 249 237 232 227 223 220 215 210 208 209 209 210 210 212 214 213 213 214 215 216 219 220 220 219 220 221 222 222 222 223 225 226 227 228 229 229 230 231 231 231 232 232 232 232 233 235 236 238 239
276 280 277 261 247 246 253 254 250 250 252 246 232 242 337 339 276 252 246 252 276 335 338 325 308 306 313 316 326 334 329 325 319 306 296 287 278 269 259 249 240 231 224 219 215 211 210 209 209 209 210 211 211 211 211 213 214 215 218 220 219 219 220 221 222 221 221 223 225 226 227 228 229 230 231 232 232 232 232 232 232 232 233 233 234 236 239
274 276 288 279 246 237 248 244 229 227 228 215 176 95 27 14 324 257 241 269 337 339 328 321 311 307 307 313 324 326 321 317 308 299 295 289 283 275 264 255 246 234 225 219 217 215 211 209 209 210 210 210 211 212 212 212 212 213 217 219 219 218 220 221 222 221 221 223 225 226 228 229 230 231 232 233 233 233 233 234 234 235 234 234 234 235 237
268 270 293 286 242 227 238 306 187 207 209 184 144 100 46 26 4 327 303 326 337 332 322 315 305 296 290 290 303 315 318 314 305 299 297 293 290 281 267 257 248 236 227 221 218 217 215 212 210 209 208 210 210 209 209 210 211 212 215 217 217 218 220 221 221 220 221 223 225 227 228 229 231 232 233 234 235 235 236 236 237 237 236 236 236 235 236
261 282 289 255 229 215 148 59 46 157 202 149 126 104 63 35 16 5 349 337 336 330 318 309 299 293 283 270 280 313 320 314 309 303 298 298 297 286 269 256 244 231 224 219 216 216 213 208 205 204 205 207 206 206 208 210 210 212 214 215 217 218 219 220 221 220 221 223 225 227 228 229 231 232 234 235 235 235 236 237 238 239 238 239 239 238 237
248 267 254 232 256 313 155 96 35 28 348 342 146 122 73 40 23 10 351 337 335 329 320 313 305 301 289 256 257 316 330 324 316 307 300 301 301 289 268 253 241 228 219 215 214 214 209 202 201 204 204 205 205 206 209 210 209 211 213 215 217 218 219 219 220 220 220 222 224 226 228 229 231 233 234 234 235 235 236 238 240 240 240 241 242 242 240
232 240 248 264 303 291 182 135 32 8 330 333 298 156 79 43 27 13 356 343 340 335 328 324 318 310 292 245 258 324 339 333 322 312 303 302 304 291 264 247 239 226 215 211 210 208 202 198 200 203 204 204 204 203 205 207 208 209 211 213 216 218 218 219 220 220 220 221 222 224 226 228 229 231 232 233 234 234 236 237 239 241 242 242 243 244 243
228 236 255 269 263 226 173 85 359 326 301 312 296 229 105 44 21 11 1 349 343 339 334 332 327 315 273 234 307 340 341 332 323 317 311 310 310 294 261 240 232 220 210 208 206 203 199 197 199 202 202 201 201 201 203 205 207 208 210 213 216 218 219 219 220 221 221 221 222 223 224 226 228 229 231 232 233 235 236 238 240 242 243 244 245 245 245
231 228 239 252 239 209 39 346 327 322 310 296 275 222 154 31 13 7 1 350 345 343 338 336 334 329 276 276 328 333 333 330 323 320 322 323 316 290 250 228 225 219 210 205 203 201 198 197 199 202 201 201 201 201 203 205 206 207 210 213 216 218 219 220 221 222 223 223 224 225 226 228 229 231 233 234 235 237 238 240 242 243 245 246 247 247 247
240 233 235 255 253 308 357 336 324 326 321 294 242 206 185 16 9 6 359 348 343 342 341 340 347 6 358 309 308 318 326 329 329 328 328 332 329 294 231 212 214 215 209 202 198 198 198 198 200 202 202 202 202 202 203 205 206 209 212 214 217 219 220 221 223 224 225 225 226 227 228 229 231 232 233 234 235 237 238 239 241 242 243 245 246 247 247
243 235 235 259 257 350 349 331 326 330 319 264 204 195 28 14 7 4 358 344 337 340 342 344 344 335 323 313 316 326 333 338 356 359 337 336 347 321 218 202 199 200 202 201 199 198 199 199 200 201 201 201 201 201 203 205 207 211 214 215 216 218 219 221 224 224 225 226 227 228 229 230 230 231 231 231 233 235 236 237 239 240 241 243 244 246 246
241 234 239 257 232 26 349 331 334 347 327 206 174 7 15 16 9 5 356 342 336 338 339 339 333 327 328 332 339 349 356 359 17 33 8 359 18 30 198 190 185 186 190 194 196 196 197 198 199 200 201 200 200 201 203 206 209 211 212 213 214 216 218 220 223 224 224 225 226 227 228 228 229 230 230 231 233 235 236 237 239 240 241 243 244 246 247
228 219 227 242 213 8 347 337 350 22 31 90 14 355 7 17 12 7 355 342 338 337 336 337 336 333 338 347 354 4 13 14 26 46 41 31 42 51 109 166 176 181 183 185 189 191 193 196 199 200 200 199 199 202 205 208 209 209 210 211 213 215 217 219 222 223 224 223 224 224 226 227 229 231 232 234 235 236 237 238 240 242 243 245 247 248 249
234 209 195 177 229 330 339 345 37 66 51 42 8 351 357 6 9 8 354 339 336 337 335 336 337 339 346 354 358 7 17 21 30 49 56 52 55 59 71 124 161 174 178 181 184 186 188 192 196 199 200 199 200 203 206 206 205 205 206 207 209 212 215 217 219 220 221 221 221 223 225 227 230 232 234 236 238 239 240 240 241 244 246 247 248 249 249
299 245 304 6 326 319 333 348 98 109 79 24 1 352 350 351 357 2 351 335 333 337 335 335 337 341 347 353 357 4 15 24 32 47 58 58 63 72 80 99 131 156 170 176 180 183 185 189 194 197 199 201 202 203 204 203 200 199 199 200 203 207 210 212 214 215 217 220 222 224 227 229 231 232 235 237 239 241 242 242 243 245 247 248 248 249 250
294 262 349 358 338 327 325 301 169 120 12 341 341 338 334 337 343 348 343 332 329 332 333 334 336 339 343 349 355 4 16 29 38 46 55 58 62 70 78 88 105 123 145 165 174 179 182 185 189 192 197 202 203 203 202 199 196 193 192 192 197 203 207 210 212 213 217 220 222 226 230 232 233 235 237 239 241 242 243 244 244 245 247 248 248 249 251
330 329 19 356 334 325 323 192 142 6 340 328 322 317 316 321 325 331 335 329 324 326 330 331 331 333 340 347 353 2 14 27 37 45 53 58 58 59 66 76 91 105 118 132 148 163 174 181 186 190 193 199 203 204 203 199 196 193 190 189 193 200 205 209 212 216 219 221 224 227 230 233 235 236 238 240 241 242 243 243 243 244 246 247 248 249 252
350 344 354 343 333 333 78 80 349 334 328 322 315 307 307 310 312 319 326 325 322 323 326 329 330 330 336 345 351 360 11 22 35 44 50 59 63 60 61 66 74 87 99 106 116 131 147 164 178 186 190 195 199 202 201 200 198 198 196 194 194 199 204 207 211 215 220 223 226 228 229 230 231 233 235 237 239 241 244 244 244 245 247 250 251 252 254
360 11 350 344 341 348 37 336 327 325 323 318 312 305 302 302 305 311 315 315 316 317 321 329 331 328 334 347 353 358 8 20 35 44 48 58 66 63 61 62 64 70 79 88 99 110 118 134 154 167 175 181 186 190 193 195 197 199 202 200 199 202 206 208 208 209 211 216 222 226 227 227 226 227 229 232 235 239 242 244 246 248 251 254 256 257 258
13 5 351 345 340 305 307 317 318 318 318 313 307 303 300 297 300 306 309 309 311 314 319 329 330 327 335 349 354 357 8 21 33 41 45 52 61 62 63 65 64 64 68 74 85 96 105 117 134 146 155 163 169 174 180 186 191 196 200 199 199 203 207 208 208 206 205 207 213 219 224 226 226 226 226 228 231 235 237 240 243 246 248 250 252 255 257
351 349 345 337 324 303 304 310 314 317 320 316 307 302 300 299 299 301 304 306 308 312 318 327 332 332 337 347 354 360 12 25 33 38 41 47 57 62 62 63 63 64 66 70 75 83 93 106 118 130 140 150 160 168 176 182 187 193 198 199 199 202 206 209 211 211 209 209 211 215 219 223 227 228 227 227 229 232 234 237 238 240 242 242 241 243 247
340 344 344 336 325 315 312 316 320 323 327 326 314 304 304 307 304 301 299 299 301 306 311 319 333 336 336 345 357 6 15 24 30 33 36 44 57 64 62 58 58 59 62 66 68 72 81 94 107 119 127 137 148 160 173 183 191 198 202 203 203 203 206 209 211 213 215 215 215 215 216 219 223 227 228 228 228 228 229 232 233 234 236 236 233 233 234
348 344 342 337 330 324 325 330 335 339 342 338 323 307 306 312 312 307 303 298 295 297 302 309 324 333 335 346 0 8 13 18 23 28 32 38 48 59 61 57 53 50 51 56 62 67 72 80 92 106 118 128 138 146 155 169 184 197 203 203 203 203 204 205 205 207 209 210 211 212 213 213 216 220 224 226 226 224 223 225 228 230 231 229 227 224 222
354 350 346 343 340 340 342 344 344 346 350 348 333 312 307 312 313 310 305 297 291 289 292 299 311 325 337 349 359 6 12 15 18 23 31 36 38 42 48 53 52 47 44 48 57 64 68 71 78 89 98 108 122 138 147 154 164 182 193 195 196 198 200 200 201 201 201 201 202 205 206 206 207 210 212 216 219 219 217 216 216 218 219 219 218 217 218
357 356 355 353 349 347 347 345 340 341 347 351 343 323 310 308 308 307 300 290 285 282 281 285 296 316 340 353 357 3 12 17 17 19 28 34 34 31 36 46 50 48 45 46 50 57 63 66 70 76 81 88 97 108 129 146 156 167 181 186 187 188 191 193 195 196 196 196 195 196 195 195 196 197 198 199 202 207 209 207 205 202 201 203 206 210 216
359 0 1 359 348 341 340 340 343 346 351 356 357 348 327 311 305 302 298 292 284 276 272 276 288 311 340 356 360 2 10 16 17 15 20 28 31 30 34 41 43 42 42 43 45 51 58 59 60 65 71 78 83 83 90 119 148 161 172 180 182 182 182 185 187 189 188 186 185 184 183 183 183 184 186 188 191 194 195 196 195 192 188 187 186 189 198
359 360 1 358 349 343 343 347 352 356 357 359 3 6 359 340 319 306 301 297 291 280 271 271 282 301 327 347 357 3 7 10 11 11 13 17 21 24 33 42 42 38 41 42 39 44 51 52 50 55 62 69 74 70 66 79 129 159 164 168 174 178 178 177 179 180 180 177 175 175 176 176 176 177 179 182 185 185 183 183 185 185 183 181 180 179 176
357 358 359 356 353 352 352 352 354 357 358 359 0 3 5 1 347 331 318 307 300 291 280 272 270 273 288 319 347 4 9 8 8 11 12 9 7 14 31 46 49 44 43 41 31 29 37 44 45 46 51 58 64 62 57 60 88 143 156 153 158 170 176 176 175 175 175 173 170 169 172 173 173 176 178 179 179 179 177 175 174 175 174 173 174 172 161
356 358 359 358 357 357 355 354 354 356 359 0 1 1 4 4 356 345 337 328 315 302 288 276 269 263 263 282 340 6 7 4 3 5 5 2 358 2 20 42 49 44 37 32 24 20 22 27 32 37 41 46 54 58 54 51 58 92 136 144 146 155 168 176 179 179 178 173 168 169 174 176 176 178 180 181 179 179 175 170 164 163 164 164 163 161 152
358 359 1 1 360 360 359 357 356 357 359 2 2 1 0 358 351 344 342 339 328 314 296 276 264 258 259 269 297 322 333 341 348 351 351 351 349 346 352 13 33 38 33 25 18 16 15 15 18 24 28 35 46 52 50 47 47 57 91 136 152 154 158 169 177 179 177 172 169 172 177 178 177 178 180 180 180 179 177 172 166 163 164 162 156 150 142
2 1 2 1 359 359 360 359 357 356 357 0 2 0 359 357 354 352 352 346 332 320 307 281 260 253 255 264 277 292 305 315 324 333 339 341 341 339 339 343 357 24 35 19 3 7 13 13 10 10 13 23 38 49 48 45 43 46 60 95 145 163 166 168 172 175 175 173 172 174 178 179 179 180 180 178 175 173 173 171 166 161 158 153 145 138 133
10 8 7 4 0 358 358 358 357 355 356 0 3 2 1 3 5 4 359 349 333 321 315 297 259 242 246 256 267 279 292 303 311 318 322 321 321 331 340 336 335 348 10 353 344 356 10 9 1 357 360 8 24 42 49 45 41 40 44 59 118 166 171 169 169 172 175 174 173 173 173 174 175 177 175 171 166 164 165 164 161 156 152 145 138 133 130
17 15 12 8 3 0 358 358 359 358 358 0 4 4 3 6 10 12 9 357 339 324 318 307 263 232 234 243 254 265 277 290 304 314 310 299 296 308 320 319 315 317 314 304 312 327 342 346 346 348 351 357 7 23 41 44 42 38 31 33 115 164 169 169 168 166 165 165 165 164 164 163 163 164 164 161 159 159 159 158 156 154 151 144 139 137 136
19 16 13 8 4 2 0 360 1 2 2 2 5 7 7 9 14 19 18 7 347 330 320 305 259 222 220 228 239 253 267 279 294 307 306 298 298 306 311 307 298 287 272 270 281 295 311 321 323 325 331 340 349 357 7 23 31 33 24 6 171 167 168 172 171 164 158 159 161 161 159 159 158 158 158 159 158 159 158 156 154 153 150 146 144 143 142
19 18 16 13 7 3 2 2 1 3 5 5 9 12 13 14 18 24 27 24 13 2 360 9 161 186 198 213 228 242 259 283 300 306 303 303 310 315 315 309 299 286 271 264 267 277 291 297 295 296 303 312 323 329 328 337 346 345 324 247 208 181 170 174 178 173 166 163 163 161 160 160 159 157 158 158 158 158 158 156 155 154 151 149 149 149 148
17 18 19 18 15 9 5 4 4 5 6 8 12 15 17 20 23 28 34 42 46 48 59 80 97 112 124 141 204 246 274 302 316 321 318 317 321 323 320 315 311 306 298 289 285 288 292 289 283 281 283 284 285 283 275 272 285 283 261 231 215 198 176 167 173 176 173 170 167 165 163 163 162 160 160 160 160 161 161 160 160 159 156 155 155 155 154
13 15 19 21 20 16 11 8 8 10 11 11 12 14 19 26 31 32 36 47 57 61 69 85 94 93 86 76 58 23 353 341 334 328 323 321 325 327 324 318 314 310 306 305 303 301 297 292 285 279 275 271 265 259 251 244 247 250 245 233 220 205 186 171 166 167 170 171 170 168 167 165 164 163 163 163 164 164 164 165 165 164 162 161 161 161 160
8 9 17 21 21 20 18 14 12 14 17 19 19 19 22 30 35 36 36 43 55 61 63 68 77 78 72 64 60 59 49 14 338 325 323 322 321 318 312 308 306 302 299 299 296 290 287 288 286 279 277 274 265 253 246 243 241 239 237 234 227 212 194 181 173 168 166 169 170 168 166 165 165 165 165 167 167 167 168 169 169 168 165 164 163 162 161
3 3 12 21 22 22 22 20 16 17 21 25 27 28 29 33 38 40 39 41 49 60 65 66 68 76 81 82 83 84 83 80 85 100 307 313 312 306 304 308 309 304 298 293 288 280 277 281 284 282 284 285 280 269 257 247 242 238 235 233 229 218 202 189 182 176 173 172 172 171 169 168 168 169 169 170 170 170 169 168 167 165 163 162 158 153 148
2 359 7 19 23 23 24 24 22 21 23 25 27 29 33 36 40 44 46 46 49 57 65 70 75 81 87 91 95 96 90 81 77 79 76 50 16 347 333 328 321 314 308 299 283 272 269 274 277 278 280 284 285 280 266 252 243 239 234 230 227 220 208 196 189 185 182 179 177 176 175 173 172 172 170 170 169 168 167 166 163 161 159 154 147 140 135
8 2 6 19 24 23 24 26 26 24 25 27 26 25 29 34 39 43 48 51 52 54 59 65 71 76 80 84 89 90 88 83 79 76 76 76 71 54 29 359 335 324 322 315 297 277 271 274 275 275 276 278 281 275 261 248 238 231 226 224 220 213 203 194 187 184 183 181 179 177 176 174 171 169 167 166 164 162 161 159 156 151 147 142 137 133 131
17 10 7 16 27 28 26 26 28 27 27 28 28 27 29 35 38 40 44 49 53 55 57 59 62 64 67 72 75 75 74 77 79 78 74 68 58 48 38 23 359 337 326 318 311 301 289 281 278 277 277 280 277 264 245 234 226 219 214 212 208 200 192 185 181 178 178 177 175 173 171 169 167 164 160 156 152 148 145 142 139 135 134 132 132 133 133
26 19 12 15 30 36 30 26 29 32 30 28 29 31 34 37 39 40 41 44 48 53 58 61 62 62 63 65 66 66 68 72 75 74 69 61 53 46 39 33 29 24 0 325 310 307 308 305 296 282 267 257 252 236 220 211 205 197 189 186 184 180 174 170 168 166 165 164 163 160 158 156 154 150 147 144 140 136 134 132 130 130 130 132 133 135 136
28 25 20 19 31 43 38 30 30 35 35 33 33 35 36 36 38 42 44 44 45 48 53 58 63 66 67 67 68 69 70 72 73 73 73 70 65 58 52 49 48 43 34 23 11 349 329 320 307 275 219 188 179 179 178 174 168 160 153 149 148 149 149 151 151 151 150 149 147 145 143 141 139 137 137 137 135 133 133 133 133 134 135 137 139 142 143
26 29 29 28 33 45 46 37 32 35 38 37 36 36 37 37 37 40 44 47 49 50 51 53 58 62 65 67 68 69 69 71 71 71 72 74 75 71 64 59 56 55 56 60 62 59 53 59 91 119 144 156 156 150 145 142 141 139 137 134 131 130 132 136 138 138 136 136 135 133 132 131 129 129 130 131 131 131 133 135 135 135 136 138 139 139 140
25 33 38 37 35 39 46 43 37 37 40 39 38 38 38 39 40 42 45 48 51 53 55 56 56 56 58 61 64 65 68 70 71 70 70 73 74 73 70 67 65 64 65 68 70 69 68 75 90 101 114 129 136 134 131 129 128 129 131 130 127 123 122 122 123 123 122 122 121 120 120 120 121 123 124 125 125 126 129 130 131 132 134 136 136 136 136
26 36 42 39 33 32 37 41 39 39 40 40 41 42 42 42 43 44 45 46 49 52 54 57 57 56 55 57 60 64 67 70 72 73 74 76 77 76 75 74 73 72 71 72 73 73 72 74 80 88 96 103 108 111 113 114 113 113 114 115 115 113 111 111 111 111 111 111 111 112 113 115 116 117 117 116 116 116 118 120 121 122 125 127 127 127 127
26 32 36 35 33 31 30 30 34 39 39 36 37 41 43 42 42 42 43 44 46 49 52 55 59 60 58 58 61 66 68 70 73 75 77 79 80 81 81 80 79 78 78 78 77 77 75 76 78 83 88 91 93 95 96 97 98 98 99 99 100 100 100 100 100 100 101 102 103 105 107 108 109 109 109 107 106 105 105 105 106 108 111 112 113 113 112
30 31 31 32 36 38 34 29 27 33 37 36 36 38 39 38 37 38 40 42 45 47 49 52 58 62 62 61 63 66 68 69 70 72 74 77 80 83 86 87 86 84 84 83 82 81 78 76 77 80 83 84 83 84 85 86 86 86 86 87 88 88 87 85 84 84 86 89 92 96 100 101 101 100 99 97 95 93 93 93 94 96 99 100 101 102 101
29 29 27 31 38 41 40 36 29 27 31 37 39 39 37 36 33 31 33 37 41 45 47 49 54 59 61 62 64 67 69 69 69 72 74 76 78 79 81 84 87 89 90 90 89 89 87 86 84 83 83 82 80 80 80 81 82 82 82 83 83 83 82 80 79 79 81 83 86 89 93 94 93 90 89 88 86 84 83 83 84 86 87 89 91 92 91